Location: Saint-Restitut
(44.3351°N, 4.7915°E)
Time: 13:40:43
(UTC+00:00)

Cosmos 2333 Rocket - Pass Details

Date: 03 February 2023
Orbit: 838 x 864 km, 70.8° (Epoch: 20 March)

Event Time Altitude Azimuth Distance (km) Brightness Sun altitude
Rises 19:54:56 0° 236° (SW) 3,383 5.9 -32.8°
Reaches altitude 10° 19:57:39 10° 246° (WSW) 2,455 5.2 -33.2°
Maximum altitude 20:02:34 30° 308° (NW) 1,466 3.8 -34.1°
Enters shadow 20:04:29 25° 341° (NNW) 1,658 3.9 -34.4°
